Location: Huberhof
(49.2050°N, 7.4980°E)
Time: 01:00:05
(UTC+00:00)

Cosmos 1400 Rocket - Pass Details

Date: 29 October 2020
Orbit: 521 x 568 km, 81.2° (Epoch: 26 November)

Event Time Altitude Azimuth Distance (km) Brightness Sun altitude
Rises 17:06:44 0° 178° (S) 2,751 6.5 -9.3°
Reaches altitude 10° 17:08:56 10° 174° (S) 1,855 5.6 -9.6°
Maximum altitude 17:12:56 54° 97° (E) 687 3.0 -10.3°
Drops below altitude 10° 17:16:55 10° 20° (NNE) 1,849 5.2 -10.9°
Sets 17:19:07 0° 16° (NNE) 2,741 6.1 -11.3°
